SCP
-0 -0 -0 -0 -0 -0 -0 -0 -0 -0 -0 -0 -0 -0 -0 -0 -0 -0 -0 -0 -0 -0 -0 -0 -0 -0 -0
-0 -0 -0 -0 -0 -0 -0 -0 -0 -0 -0 -0 -0 -0 -0 -0 -0 -0 -0 -0 -0 -0 -0 -0 -0 -0 -0
-0 -0 -0 -0 -0 -0 -0 -0 -0 0 -0 -0 -0 -0 -0 -0 -0 -0 -0 -0 -0 -0 -0 -0 -0 0 0
-0 -0 -0 -0 -0 -0 -0 -0 0 0 0 0 0 0 -0 -0 -0 -0 -0 0 0 0 0 0 0 0 0
-0 -0 -0 -0 -0 -0 -0 0 0 0 0 0 0 0 0 0 0 0 0 0 0 0 0 0 0 0 0
-0 -0 -0 -0 -0 0 0 0 0 0 0 0 0 0 0 0 0 0 0 0 0 0 0 0 0 0 0
-0 -0 -0 -0 -0 -0 0 0 0 0 0 0 0 0 0 0 0 0 0 0 0 0 0 0 0 0 0
-0 -0 -0 -0 -0 0 0 0 0 0 0 0 0 0 0 0 0 0 0 0 0 0 0 0 0 0 0
-0 -0 -0 0 0 0 0 0 0 0 0 0 0 0 0 0 0 0 0 0 0 0 0 0 0 0 0
-0 0 0 0 0 0 0 0 0 0 0 0 0 0 0 0 0 0 0 0 0 0 0 0 0 0 0
0 0 0 0 0 0 0 0 0 0 0 0 0 0 0 0 0 0 0 0 0 0 0 0 0 0 0
0 0 0 0 0 0 0 0 0 0 0 0 0 0 0 0 0 0 0 0 0 0 0 0 0 0 0
0 0 0 0 0 0 0 0 0 0 0 0 0 0 0 0 0 0 0 0 0 0 0 0 0 0 0
0 0 0 0 0 0 0 0 0 0 0 0 0 0 0 0 0 0 0 0 0 0 0 0 0 0 0
0 0 0 0 0 0 0 0 0 0 0 0 0 0 0 0 0 0 0 0 0 0 0 0 0 0 0
0 0 0 0 0 0 0 0 0 0 0 0 0 0 0 0 0 0 0 0 0 0 0 0 0 0 0
Wind_Speed_500mb
25 21 17 16 17 17 15 15 14 15 15 16 16 16 17 19 20 22 23 22 19 19 22 33 34 31 28
31 26 20 18 18 17 14 12 11 13 13 14 15 16 17 18 19 21 21 20 18 17 20 20 23 21 17
34 30 26 23 21 20 16 13 10 10 11 12 12 13 15 16 18 21 21 19 18 17 14 13 16 23 23
40 36 34 31 27 23 20 17 14 12 13 12 11 11 12 13 15 17 18 17 16 15 14 15 24 28 27
46 44 41 36 32 30 27 24 20 18 16 16 15 13 12 11 10 11 11 12 11 10 12 19 22 28 26
47 47 44 42 39 36 32 31 28 24 22 21 20 18 18 11 8 9 8 7 8 9 10 15 25 30 37
49 47 45 42 43 39 39 38 35 32 26 25 26 23 23 19 10 11 9 10 8 10 13 16 24 32 35
56 48 47 47 44 43 44 46 37 34 34 29 32 28 21 25 17 17 17 17 15 12 16 19 30 35 39
59 57 57 56 55 51 49 48 47 46 47 40 38 39 31 26 26 27 26 26 27 28 27 24 33 37 42
65 64 66 62 61 56 55 53 55 52 50 50 47 47 46 41 36 35 39 36 34 33 34 34 37 42 47
69 69 74 68 62 65 60 59 61 60 62 59 57 51 51 56 54 47 45 43 44 43 44 41 42 46 51
68 71 74 77 76 68 71 68 65 64 63 62 63 61 57 59 65 60 53 54 52 53 50 49 47 49 52
70 74 79 83 87 76 80 78 74 69 70 67 66 66 63 72 69 65 68 67 64 62 55 54 54 58 60
68 70 74 72 80 77 80 81 83 82 81 81 82 78 68 73 74 83 75 76 76 72 71 59 45 61 69
64 69 74 77 78 81 83 81 80 80 80 81 81 82 76 77 80 82 87 87 89 84 82 72 28 37 56
63 69 75 78 80 77 81 84 84 81 80 77 78 82 78 80 86 87 82 96 92 102 88 93 80 61 45
Wind_Direction_500mb
182 179 172 166 161 154 142 129 120 115 117 123 125 127 128 137 147 154 155 157 155 141 135 138 135 134 130
190 191 189 184 178 173 165 151 132 120 124 125 125 125 129 141 150 159 162 162 160 152 151 158 163 173 163
199 198 200 200 193 192 187 181 173 147 146 144 137 130 132 144 152 162 169 171 170 171 173 186 188 180 173
205 206 208 209 206 205 208 205 197 182 176 171 165 155 148 151 161 172 175 177 181 188 191 168 159 162 162
210 211 213 215 215 213 214 214 212 207 200 195 192 184 179 173 182 177 179 178 188 195 188 180 172 169 161
218 219 220 221 219 220 219 220 224 220 214 211 204 204 196 190 186 187 207 203 205 224 224 217 185 174 167
222 221 225 229 231 229 227 228 227 227 227 220 214 217 211 203 217 208 218 255 238 246 231 209 183 180 193
216 220 220 223 229 235 231 236 241 233 232 227 226 224 239 228 228 242 250 258 259 259 265 218 200 200 197
221 218 221 223 225 231 233 236 242 232 229 230 229 234 236 243 247 254 251 257 259 259 239 235 222 220 212
228 224 224 224 228 231 231 234 240 241 243 239 237 238 241 237 245 251 255 244 251 255 252 241 234 229 226
235 231 230 233 229 233 237 235 236 239 239 242 242 243 242 244 243 245 248 250 248 244 237 237 235 236 235
236 238 238 236 237 233 234 237 240 239 241 242 245 244 247 248 244 247 246 248 245 242 233 233 235 237 239
230 230 232 236 236 235 232 241 238 240 245 245 244 247 245 250 247 252 245 238 235 234 231 229 234 235 236
241 243 240 244 246 242 240 238 240 243 245 248 250 251 250 248 250 244 247 240 236 236 228 234 229 235 234
248 246 245 245 249 247 245 242 239 240 243 247 250 250 253 254 250 254 251 247 242 237 234 231 224 228 238
251 251 250 251 251 253 250 250 247 246 247 245 247 248 250 252 255 255 258 252 248 242 235 233 240 245 237
Wind_Speed_850mb
25 21 17 16 17 17 15 15 14 15 15 16 16 16 17 19 20 22 23 22 19 19 22 33 34 31 28
31 26 20 18 18 17 14 12 11 13 13 14 15 16 17 18 19 21 21 20 18 17 20 20 23 21 17
34 30 26 23 21 20 16 13 10 10 11 12 12 13 15 16 18 21 21 19 18 17 14 13 16 23 23
40 36 34 31 27 23 20 17 14 12 13 12 11 11 12 13 15 17 18 17 16 15 14 15 24 28 27
46 44 41 36 32 30 27 24 20 18 16 16 15 13 12 11 10 11 11 12 11 10 12 19 22 28 26
47 47 44 42 39 36 32 31 28 24 22 21 20 18 18 11 8 9 8 7 8 9 10 15 25 30 37
49 47 45 42 43 39 39 38 35 32 26 25 26 23 23 19 10 11 9 10 8 10 13 16 24 32 35
56 48 47 47 44 43 44 46 37 34 34 29 32 28 21 25 17 17 17 17 15 12 16 19 30 35 39
59 57 57 56 55 51 49 48 47 46 47 40 38 39 31 26 26 27 26 26 27 28 27 24 33 37 42
65 64 66 62 61 56 55 53 55 52 50 50 47 47 46 41 36 35 39 36 34 33 34 34 37 42 47
69 69 74 68 62 65 60 59 61 60 62 59 57 51 51 56 54 47 45 43 44 43 44 41 42 46 51
68 71 74 77 76 68 71 68 65 64 63 62 63 61 57 59 65 60 53 54 52 53 50 49 47 49 52
70 74 79 83 87 76 80 78 74 69 70 67 66 66 63 72 69 65 68 67 64 62 55 54 54 58 60
68 70 74 72 80 77 80 81 83 82 81 81 82 78 68 73 74 83 75 76 76 72 71 59 45 61 69
64 69 74 77 78 81 83 81 80 80 80 81 81 82 76 77 80 82 87 87 89 84 82 72 28 37 56
63 69 75 78 80 77 81 84 84 81 80 77 78 82 78 80 86 87 82 96 92 102 88 93 80 61 45
Wind_Direction_850mb
182 179 172 166 161 154 142 129 120 115 117 123 125 127 128 137 147 154 155 157 155 141 135 138 135 134 130
190 191 189 184 178 173 165 151 132 120 124 125 125 125 129 141 150 159 162 162 160 152 151 158 163 173 163
199 198 200 200 193 192 187 181 173 147 146 144 137 130 132 144 152 162 169 171 170 171 173 186 188 180 173
205 206 208 209 206 205 208 205 197 182 176 171 165 155 148 151 161 172 175 177 181 188 191 168 159 162 162
210 211 213 215 215 213 214 214 212 207 200 195 192 184 179 173 182 177 179 178 188 195 188 180 172 169 161
218 219 220 221 219 220 219 220 224 220 214 211 204 204 196 190 186 187 207 203 205 224 224 217 185 174 167
222 221 225 229 231 229 227 228 227 227 227 220 214 217 211 203 217 208 218 255 238 246 231 209 183 180 193
216 220 220 223 229 235 231 236 241 233 232 227 226 224 239 228 228 242 250 258 259 259 265 218 200 200 197
221 218 221 223 225 231 233 236 242 232 229 230 229 234 236 243 247 254 251 257 259 259 239 235 222 220 212
228 224 224 224 228 231 231 234 240 241 243 239 237 238 241 237 245 251 255 244 251 255 252 241 234 229 226
235 231 230 233 229 233 237 235 236 239 239 242 242 243 242 244 243 245 248 250 248 244 237 237 235 236 235
236 238 238 236 237 233 234 237 240 239 241 242 245 244 247 248 244 247 246 248 245 242 233 233 235 237 239
230 230 232 236 236 235 232 241 238 240 245 245 244 247 245 250 247 252 245 238 235 234 231 229 234 235 236
241 243 240 244 246 242 240 238 240 243 245 248 250 251 250 248 250 244 247 240 236 236 228 234 229 235 234
248 246 245 245 249 247 245 242 239 240 243 247 250 250 253 254 250 254 251 247 242 237 234 231 224 228 238
251 251 250 251 251 253 250 250 247 246 247 245 247 248 250 252 255 255 258 252 248 242 235 233 240 245 237